TimePDT,TemperatureF,Dew PointF,Humidity,Sea Level PressureIn,VisibilityMPH,Wind Direction,Wind SpeedMPH,Gust SpeedMPH,PrecipitationIn,Events,Conditions,WindDirDegrees,DateUTC
12:56 AM,54.0,46.9,77,30.24,10.0,Calm,Calm,-,N/A,,Overcast,0,2012-10-13 07:56:00
1:56 AM,53.1,46.9,80,30.25,10.0,Calm,Calm,-,N/A,,Overcast,0,2012-10-13 08:56:00
3:56 AM,54.0,48.0,80,30.26,10.0,Calm,Calm,-,N/A,,Overcast,0,2012-10-13 10:56:00
4:56 AM,54.0,46.9,77,30.26,10.0,Calm,Calm,-,N/A,,Overcast,0,2012-10-13 11:56:00
5:56 AM,53.1,46.9,80,30.27,10.0,Calm,Calm,-,N/A,,Mostly Cloudy,0,2012-10-13 12:56:00
6:56 AM,53.1,48.0,83,30.28,10.0,Calm,Calm,-,N/A,,Overcast,0,2012-10-13 13:56:00
7:53 AM,55.4,48.2,77,30.30,10.0,NNW,3.5,-,N/A,,Overcast,330,2012-10-13 14:53:00
7:56 AM,55.0,48.0,77,30.29,10.0,NNW,3.5,-,N/A,,Overcast,330,2012-10-13 14:56:00
8:31 AM,55.4,48.2,77,30.31,10.0,Calm,Calm,-,N/A,,Overcast,0,2012-10-13 15:31:00
8:56 AM,55.9,48.9,77,30.30,10.0,Calm,Calm,-,N/A,,Overcast,0,2012-10-13 15:56:00
9:56 AM,59.0,50.0,72,30.32,10.0,Calm,Calm,-,N/A,,Overcast,0,2012-10-13 16:56:00
10:56 AM,63.0,51.1,65,30.30,10.0,Calm,Calm,-,N/A,,Mostly Cloudy,0,2012-10-13 17:56:00
11:25 AM,64.4,51.8,64,30.30,10.0,Calm,Calm,-,N/A,,Partly Cloudy,0,2012-10-13 18:25:00
11:56 AM,66.9,52.0,59,30.27,10.0,Variable,3.5,-,N/A,,Clear,0,2012-10-13 18:56:00
12:56 PM,72.0,54.0,53,30.25,10.0,Variable,3.5,-,N/A,,Clear,0,2012-10-13 19:56:00
1:56 PM,73.9,54.0,50,30.20,10.0,Calm,Calm,-,N/A,,Clear,0,2012-10-13 20:56:00
2:56 PM,75.9,54.0,46,30.19,10.0,NNW,8.1,19.6,N/A,,Partly Cloudy,330,2012-10-13 21:56:00
3:56 PM,75.0,54.0,48,30.19,10.0,NW,6.9,-,N/A,,Clear,310,2012-10-13 22:56:00
4:56 PM,75.0,54.0,48,30.17,10.0,NW,9.2,-,N/A,,Clear,320,2012-10-13 23:56:00
6:56 PM,69.1,55.9,63,30.17,10.0,Calm,Calm,-,N/A,,Clear,0,2012-10-14 01:56:00
7:56 PM,64.9,54.0,68,30.18,10.0,Calm,Calm,-,N/A,,Clear,0,2012-10-14 02:56:00
8:56 PM,62.1,54.0,75,30.19,10.0,Calm,Calm,-,N/A,,Clear,0,2012-10-14 03:56:00
10:56 PM,59.0,53.1,81,30.20,10.0,Calm,Calm,-,N/A,,Clear,0,2012-10-14 05:56:00
11:56 PM,55.9,52.0,87,30.20,10.0,Calm,Calm,-,N/A,,Clear,0,2012-10-14 06:56:00